Time,TemperatureF,DewpointF,PressureIn,WindDirection,WindDirectionDegrees,WindSpeedMPH,WindSpeedGustMPH,Humidity,HourlyPrecipIn,Conditions,Clouds,dailyrainin,SolarRadiationWatts/m^2,SoftwareType,DateUTC
2013-06-03 00:14:00,77.2,74.0,29.98,SW,236,0.0,-999.0,89,-99.99,,,0.00,0,weatherlink.com 1.10,2013-06-03 04:14:00,
2013-06-03 00:29:00,77.1,74.0,29.97,SW,236,0.0,-999.0,89,-99.99,,,0.00,0,weatherlink.com 1.10,2013-06-03 04:29:00,
2013-06-03 00:44:00,77.0,74.0,29.97,SW,236,0.0,-999.0,90,-99.99,,,0.00,0,weatherlink.com 1.10,2013-06-03 04:44:00,
2013-06-03 00:59:00,76.8,74.0,29.96,SW,236,0.0,-999.0,90,-99.99,,,0.00,0,weatherlink.com 1.10,2013-06-03 04:59:00,
2013-06-03 01:14:00,76.5,74.0,29.96,SW,236,0.0,-999.0,90,-99.99,,,0.00,0,weatherlink.com 1.10,2013-06-03 05:14:00,
2013-06-03 01:29:00,76.3,74.0,29.95,SW,236,0.0,-999.0,91,-99.99,,,0.00,0,weatherlink.com 1.10,2013-06-03 05:29:00,
2013-06-03 01:44:00,76.0,73.0,29.94,SW,236,0.0,-999.0,91,-99.99,,,0.00,0,weatherlink.com 1.10,2013-06-03 05:44:00,
2013-06-03 01:58:00,75.8,73.0,29.94,SW,236,0.0,-999.0,92,-99.99,,,0.00,0,weatherlink.com 1.10,2013-06-03 05:58:00,
2013-06-03 02:14:00,75.7,73.0,29.94,SW,236,0.0,-999.0,92,-99.99,,,0.00,0,weatherlink.com 1.10,2013-06-03 06:14:00,
2013-06-03 02:29:00,75.9,74.0,29.94,SW,236,0.0,-999.0,92,-99.99,,,0.00,0,weatherlink.com 1.10,2013-06-03 06:29:00,
2013-06-03 02:44:00,76.1,74.0,29.93,SW,236,0.0,-999.0,92,-99.99,,,0.00,0,weatherlink.com 1.10,2013-06-03 06:44:00,
2013-06-03 02:59:00,76.2,74.0,29.93,SW,236,0.0,-999.0,91,-99.99,,,0.00,0,weatherlink.com 1.10,2013-06-03 06:59:00,
2013-06-03 03:14:00,76.3,74.0,29.92,SW,236,0.0,-999.0,91,-99.99,,,0.00,0,weatherlink.com 1.10,2013-06-03 07:14:00,
2013-06-03 03:29:00,76.6,74.0,29.93,SW,236,0.0,-999.0,90,-99.99,,,0.00,0,weatherlink.com 1.10,2013-06-03 07:29:00,
2013-06-03 03:44:00,76.8,74.0,29.93,SW,236,0.0,-999.0,90,-99.99,,,0.00,0,weatherlink.com 1.10,2013-06-03 07:44:00,
2013-06-03 03:59:00,77.0,74.0,29.93,SW,236,0.0,-999.0,90,-99.99,,,0.00,0,weatherlink.com 1.10,2013-06-03 07:59:00,
2013-06-03 04:14:00,77.1,74.0,29.92,SW,236,0.0,-999.0,89,-99.99,,,0.00,0,weatherlink.com 1.10,2013-06-03 08:14:00,
2013-06-03 04:29:00,77.3,74.0,29.93,SW,236,0.0,-999.0,89,-99.99,,,0.00,0,weatherlink.com 1.10,2013-06-03 08:29:00,
2013-06-03 04:44:00,77.3,74.0,29.93,SW,236,0.0,-999.0,89,-99.99,,,0.00,0,weatherlink.com 1.10,2013-06-03 08:44:00,
2013-06-03 04:59:00,77.4,74.0,29.93,SW,236,0.0,-999.0,89,-99.99,,,0.00,0,weatherlink.com 1.10,2013-06-03 08:59:00,
2013-06-03 05:14:00,77.5,74.0,29.92,SW,236,0.0,-999.0,89,-99.99,,,0.00,0,weatherlink.com 1.10,2013-06-03 09:14:00,
2013-06-03 05:29:00,77.5,74.0,29.92,SW,236,0.0,-999.0,89,-99.99,,,0.00,0,weatherlink.com 1.10,2013-06-03 09:29:00,
2013-06-03 05:44:00,77.4,75.0,29.92,East,88,0.0,-999.0,91,-99.99,,,0.00,0,weatherlink.com 1.10,2013-06-03 09:44:00,
2013-06-03 05:59:00,77.1,74.0,29.93,East,89,1.0,-999.0,91,-99.99,,,0.00,0,weatherlink.com 1.10,2013-06-03 09:59:00,
2013-06-03 06:14:00,76.8,74.0,29.93,East,88,0.0,-999.0,92,-99.99,,,0.00,0,weatherlink.com 1.10,2013-06-03 10:14:00,
2013-06-03 06:29:00,76.6,74.0,29.93,East,93,0.0,-999.0,91,-99.99,,,0.00,0,weatherlink.com 1.10,2013-06-03 10:29:00,
2013-06-03 06:44:00,76.6,74.0,29.94,ESE,108,0.0,-999.0,92,-99.99,,,0.00,9,weatherlink.com 1.10,2013-06-03 10:44:00,
2013-06-03 06:59:00,76.6,74.0,29.95,ESE,106,0.0,-999.0,92,-99.99,,,0.00,7,weatherlink.com 1.10,2013-06-03 10:59:00,
2013-06-03 07:14:00,76.6,74.0,29.95,ESE,116,0.0,-999.0,91,-99.99,,,0.00,16,weatherlink.com 1.10,2013-06-03 11:14:00,
2013-06-03 07:29:00,76.7,74.0,29.95,ESE,116,0.0,-999.0,92,-99.99,,,0.00,40,weatherlink.com 1.10,2013-06-03 11:29:00,
2013-06-03 07:44:00,77.1,75.0,29.96,ESE,118,0.0,-999.0,92,-99.99,,,0.00,60,weatherlink.com 1.10,2013-06-03 11:44:00,
2013-06-03 07:59:00,77.2,74.0,29.96,SE,135,0.0,-999.0,89,-99.99,,,0.00,60,weatherlink.com 1.10,2013-06-03 11:59:00,
2013-06-03 08:14:00,77.7,74.0,29.97,SSW,202,0.0,-999.0,88,-99.99,,,0.00,53,weatherlink.com 1.10,2013-06-03 12:14:00,
2013-06-03 08:29:00,78.2,74.0,29.97,SE,145,0.0,-999.0,88,-99.99,,,0.00,123,weatherlink.com 1.10,2013-06-03 12:29:00,
2013-06-03 08:44:00,79.1,75.0,29.97,South,190,0.0,-999.0,88,-99.99,,,0.00,137,weatherlink.com 1.10,2013-06-03 12:44:00,
2013-06-03 08:59:00,79.7,76.0,29.97,SE,131,0.0,-999.0,87,-99.99,,,0.00,127,weatherlink.com 1.10,2013-06-03 12:59:00,
2013-06-03 09:14:00,80.0,76.0,29.97,South,186,0.0,-999.0,86,-99.99,,,0.00,197,weatherlink.com 1.10,2013-06-03 13:14:00,
2013-06-03 09:29:00,80.5,76.0,29.97,ESE,117,0.0,-999.0,86,-99.99,,,0.00,246,weatherlink.com 1.10,2013-06-03 13:29:00,
2013-06-03 09:44:00,80.6,76.0,29.96,SSE,166,0.0,-999.0,86,-99.99,,,0.00,244,weatherlink.com 1.10,2013-06-03 13:44:00,
2013-06-03 09:59:00,80.8,76.0,29.96,SSW,195,0.0,-999.0,85,-99.99,,,0.00,225,weatherlink.com 1.10,2013-06-03 13:59:00,
2013-06-03 10:14:00,81.1,76.0,29.96,SE,134,1.0,-999.0,85,-99.99,,,0.00,220,weatherlink.com 1.10,2013-06-03 14:14:00,
2013-06-03 10:29:00,81.4,76.0,29.97,SSW,212,0.0,-999.0,84,-99.99,,,0.00,276,weatherlink.com 1.10,2013-06-03 14:29:00,
2013-06-03 10:44:00,82.3,77.0,29.97,SE,133,0.0,-999.0,83,-99.99,,,0.00,315,weatherlink.com 1.10,2013-06-03 14:44:00,
2013-06-03 10:59:00,82.9,77.0,29.98,SSW,192,0.0,-999.0,82,-99.99,,,0.00,243,weatherlink.com 1.10,2013-06-03 14:59:00,
2013-06-03 11:14:00,82.6,76.0,29.98,SE,130,0.0,-999.0,81,-99.99,,,0.00,151,weatherlink.com 1.10,2013-06-03 15:14:00,
2013-06-03 11:29:00,81.5,76.0,29.99,SSE,149,0.0,-999.0,83,-99.99,,,0.00,130,weatherlink.com 1.10,2013-06-03 15:29:00,
2013-06-03 11:44:00,80.9,76.0,29.99,SE,130,1.0,-999.0,85,-99.99,,,0.00,142,weatherlink.com 1.10,2013-06-03 15:44:00,
2013-06-03 11:59:00,80.0,76.0,29.99,WSW,240,0.0,-999.0,87,-99.99,,,0.00,176,weatherlink.com 1.10,2013-06-03 15:59:00,
2013-06-03 12:14:00,79.5,76.0,29.99,SE,136,0.0,-999.0,89,-99.99,,,0.00,195,weatherlink.com 1.10,2013-06-03 16:14:00,
2013-06-03 12:29:00,79.6,76.0,29.99,West,266,0.0,-999.0,89,-99.99,,,0.01,171,weatherlink.com 1.10,2013-06-03 16:29:00,
2013-06-03 12:44:00,79.6,76.0,29.99,WSW,248,0.0,-999.0,88,-99.99,,,0.01,214,weatherlink.com 1.10,2013-06-03 16:44:00,
2013-06-03 12:59:00,80.1,76.0,29.98,SSE,155,0.0,-999.0,88,-99.99,,,0.01,248,weatherlink.com 1.10,2013-06-03 16:59:00,
2013-06-03 13:14:00,80.5,76.0,29.98,SW,236,0.0,-999.0,87,-99.99,,,0.01,283,weatherlink.com 1.10,2013-06-03 17:14:00,
2013-06-03 13:29:00,81.0,77.0,29.97,SSE,165,4.0,-999.0,87,-99.99,,,0.01,306,weatherlink.com 1.10,2013-06-03 17:29:00,
2013-06-03 13:44:00,80.7,76.0,29.96,SE,140,2.0,-999.0,86,-99.99,,,0.01,264,weatherlink.com 1.10,2013-06-03 17:44:00,
2013-06-03 13:59:00,80.5,76.0,29.96,SSW,206,0.0,-999.0,87,-99.99,,,0.01,211,weatherlink.com 1.10,2013-06-03 17:59:00,
2013-06-03 14:14:00,80.7,76.0,29.96,WSW,237,0.0,-999.0,86,-99.99,,,0.01,197,weatherlink.com 1.10,2013-06-03 18:14:00,
2013-06-03 14:29:00,80.6,76.0,29.96,South,171,0.0,-999.0,86,-99.99,,,0.01,193,weatherlink.com 1.10,2013-06-03 18:29:00,
2013-06-03 14:44:00,80.6,76.0,29.95,SSE,156,0.0,-999.0,85,-99.99,,,0.01,204,weatherlink.com 1.10,2013-06-03 18:44:00,
2013-06-03 14:59:00,80.5,76.0,29.95,SE,141,0.0,-999.0,86,-99.99,,,0.01,199,weatherlink.com 1.10,2013-06-03 18:59:00,
2013-06-03 15:14:00,80.9,76.0,29.95,SE,146,0.0,-999.0,86,-99.99,,,0.01,165,weatherlink.com 1.10,2013-06-03 19:14:00,
2013-06-03 15:29:00,80.7,76.0,29.94,WSW,248,2.0,-999.0,85,-99.99,,,0.01,162,weatherlink.com 1.10,2013-06-03 19:29:00,
2013-06-03 15:44:00,80.6,75.0,29.94,WSW,241,0.0,-999.0,84,-99.99,,,0.01,234,weatherlink.com 1.10,2013-06-03 19:44:00,
2013-06-03 15:59:00,81.0,76.0,29.94,SW,217,0.0,-999.0,85,-99.99,,,0.01,171,weatherlink.com 1.10,2013-06-03 19:59:00,
2013-06-03 16:14:00,80.7,76.0,29.94,SW,226,2.0,-999.0,84,-99.99,,,0.01,149,weatherlink.com 1.10,2013-06-03 20:14:00,
2013-06-03 16:29:00,80.4,77.0,29.94,SW,226,0.0,-999.0,88,-99.99,,,0.01,176,weatherlink.com 1.10,2013-06-03 20:29:00,
2013-06-03 16:59:00,80.8,77.0,29.94,SW,226,0.0,-999.0,87,-99.99,,,0.01,160,weatherlink.com 1.10,2013-06-03 20:59:00,
2013-06-03 17:14:00,80.9,76.0,29.94,SW,229,0.0,-999.0,86,-99.99,,,0.01,128,weatherlink.com 1.10,2013-06-03 21:14:00,
2013-06-03 17:29:00,80.9,76.0,29.94,SW,229,0.0,-999.0,85,-99.99,,,0.01,167,weatherlink.com 1.10,2013-06-03 21:29:00,
2013-06-03 17:44:00,81.0,77.0,29.94,SW,236,0.0,-999.0,86,-99.99,,,0.01,118,weatherlink.com 1.10,2013-06-03 21:44:00,
2013-06-03 17:59:00,80.7,76.0,29.94,SW,236,0.0,-999.0,86,-99.99,,,0.01,81,weatherlink.com 1.10,2013-06-03 21:59:00,
2013-06-03 18:14:00,80.2,76.0,29.95,SW,236,0.0,-999.0,86,-99.99,,,0.01,67,weatherlink.com 1.10,2013-06-03 22:14:00,
2013-06-03 18:29:00,80.0,76.0,29.95,SW,236,0.0,-999.0,87,-99.99,,,0.01,47,weatherlink.com 1.10,2013-06-03 22:29:00,
2013-06-03 18:45:00,79.9,76.0,29.95,SW,233,0.0,-999.0,87,-99.99,,,0.01,44,weatherlink.com 1.10,2013-06-03 22:45:00,
2013-06-03 18:59:00,79.8,76.0,29.95,SW,236,0.0,-999.0,87,-99.99,,,0.01,35,weatherlink.com 1.10,2013-06-03 22:59:00,
2013-06-03 19:14:00,79.7,76.0,29.95,WSW,238,1.0,-999.0,88,-99.99,,,0.01,30,weatherlink.com 1.10,2013-06-03 23:14:00,
2013-06-03 19:29:00,79.4,76.0,29.94,WSW,239,0.0,-999.0,88,-99.99,,,0.01,18,weatherlink.com 1.10,2013-06-03 23:29:00,
2013-06-03 19:44:00,79.2,76.0,29.94,WSW,239,0.0,-999.0,90,-99.99,,,0.01,14,weatherlink.com 1.10,2013-06-03 23:44:00,
2013-06-03 20:00:00,78.9,76.0,29.93,SW,236,0.0,-999.0,90,-99.99,,,0.01,7,weatherlink.com 1.10,2013-06-04 00:00:00,
2013-06-03 20:15:00,78.7,76.0,29.94,SW,236,0.0,-999.0,90,-99.99,,,0.01,0,weatherlink.com 1.10,2013-06-04 00:15:00,
2013-06-03 20:30:00,78.5,75.0,29.94,SW,236,0.0,-999.0,90,-99.99,,,0.01,0,weatherlink.com 1.10,2013-06-04 00:30:00,
2013-06-03 20:45:00,78.4,75.0,29.95,SW,236,0.0,-999.0,90,-99.99,,,0.01,0,weatherlink.com 1.10,2013-06-04 00:45:00,
2013-06-03 21:00:00,78.2,75.0,29.96,SW,232,0.0,-999.0,90,-99.99,,,0.01,0,weatherlink.com 1.10,2013-06-04 01:00:00,
2013-06-03 21:14:00,78.1,75.0,29.96,SW,232,0.0,-999.0,90,-99.99,,,0.01,0,weatherlink.com 1.10,2013-06-04 01:14:00,
2013-06-03 21:30:00,78.0,75.0,29.97,SW,232,0.0,-999.0,90,-99.99,,,0.01,0,weatherlink.com 1.10,2013-06-04 01:30:00,
2013-06-03 21:45:00,78.1,75.0,29.99,SW,232,0.0,-999.0,90,-99.99,,,0.01,0,weatherlink.com 1.10,2013-06-04 01:45:00,
2013-06-03 22:00:00,78.1,75.0,30.00,SW,232,0.0,-999.0,90,-99.99,,,0.01,0,weatherlink.com 1.10,2013-06-04 02:00:00,
2013-06-03 22:15:00,78.0,75.0,30.00,SW,232,0.0,-999.0,91,-99.99,,,0.02,0,weatherlink.com 1.10,2013-06-04 02:15:00,
2013-06-03 22:30:00,77.8,75.0,30.00,SW,232,0.0,-999.0,91,-99.99,,,0.02,0,weatherlink.com 1.10,2013-06-04 02:30:00,
2013-06-03 22:45:00,77.8,76.0,30.01,SSE,153,0.0,-999.0,93,-99.99,,,0.03,0,weatherlink.com 1.10,2013-06-04 02:45:00,
2013-06-03 23:00:00,77.6,76.0,30.01,SSE,153,0.0,-999.0,93,-99.99,,,0.03,0,weatherlink.com 1.10,2013-06-04 03:00:00,
2013-06-03 23:15:00,77.4,76.0,30.01,SE,133,4.0,-999.0,94,-99.99,,,0.03,0,weatherlink.com 1.10,2013-06-04 03:15:00,
2013-06-03 23:30:00,76.1,74.0,30.01,ENE,65,1.0,-999.0,92,-99.99,,,0.03,0,weatherlink.com 1.10,2013-06-04 03:30:00,
2013-06-03 23:45:00,75.5,73.0,30.02,East,99,1.0,-999.0,93,-99.99,,,0.03,0,weatherlink.com 1.10,2013-06-04 03:45:00,